Find Starlink 35496

NORAD ID: 66114 Int'l Des: 2025-237 Owner: SPXS Country: US Constellation: starlink operational
LEOCIRCULAR

Aktuelle Ansicht

3D-Globus wird geladen...

Über Starlink 35496

Beschreibung wird geladen...

Nächste Überflüge

Passes for default location (London). Set your location on the main map for personalized predictions.

Höhenverlauf

Loading altitude history...

Zweizeiliger Elementsatz

1 66114U 25237A 26146.43316299 .00022511 00000-0 76983-3 0 9990
2 66114 53.1610 38.4944 0001393 99.3880 260.7278 15.30200670 34510
Epoch: 26. Mai 2026 • Age: 12 hours

Aktueller Status

Höhe 491.4 km
Geschwindigkeit 7.62 km/s
Subsatellitenpunkt -45.35°S, 122.69°E
Startdatum 22. Okt. 2025
Alter 0.5 years
Typ internet

Technische Details

Klassifizierung Payload
Masse 575.00 kg
Trockenmasse 530.00 kg
Gesamtmasse 575.00 kg
Länge 0.30 m
Durchmesser 4.10 m
Spannweite 29.00 m
Form Box + pan
Hersteller SPXS
Bus-Typ Starlink V2MO
Phasenstatus In Orbit
Besitzer/Staat SPXS/US

Most Searched